When you browse on this site, cookies collect data to enhance your experience and personalize the content and advertising you see.
Visit our Privacy Policy to learn more. By continuing to use the site, you agree to this use of cookies and data.
  • In Romania
  • List of Countries
  • For 7 days
  • Water Temperature
  • Weather Map
  • Weather Widgets
  • user-avatar
    Login

    Hourly Weather Dalat

    Today, 26 May, Tuesday

    Time Temperature Precipitation Wind Pressure Humidity
    00:00 +21°C° 0.1 mm 1 mps 653 mmHg 95%
    01:00 +20°C° 0 mm 1 mps 653 mmHg 95%
    02:00 +20°C° 0.1 mm 1 mps 652 mmHg 95%
    03:00 +20°C° 0.1 mm 1 mps 652 mmHg 95%
    04:00 +20°C° 0.1 mm 1 mps 652 mmHg 95%
    05:00 +21°C° 0 mm 1 mps 652 mmHg 93%
    06:00 +22°C° 0 mm 1 mps 653 mmHg 91%
    07:00 +23°C° 0 mm 1 mps 654 mmHg 90%
    08:00 +25°C° 0 mm 1 mps 654 mmHg 76%
    09:00 +27°C° 0 mm 1 mps 655 mmHg 63%
    10:00 +29°C° 0 mm 1 mps 655 mmHg 50%
    11:00 +30°C° 0 mm 1 mps 655 mmHg 48%
    12:00 +31°C° 0 mm 2 mps 655 mmHg 46%
    13:00 +31°C° 0 mm 2 mps 655 mmHg 44%
    14:00 +30°C° 0.6 mm 2 mps 654 mmHg 54%
    15:00 +29°C° 0.6 mm 2 mps 653 mmHg 64%
    16:00 +27°C° 0.6 mm 1 mps 652 mmHg 74%
    17:00 +26°C° 1.4 mm 1 mps 652 mmHg 80%
    18:00 +24°C° 1.4 mm 1 mps 652 mmHg 86%
    19:00 +22°C° 1.4 mm 1 mps 652 mmHg 92%
    20:00 +22°C° 2 mm 1 mps 652 mmHg 93%
    21:00 +22°C° 2 mm 1 mps 653 mmHg 95%
    22:00 +21°C° 2 mm 1 mps 653 mmHg 96%
    23:00 +21°C° 0.1 mm 1 mps 653 mmHg 95%

    Tomorrow, 27 May, Wednesday

    Time Temperature Precipitation Wind Pressure Humidity
    00:00 +21°C° 0.1 mm 1 mps 652 mmHg 95%
    01:00 +21°C° 0.1 mm 1 mps 652 mmHg 95%
    02:00 +20°C° 0 mm 1 mps 652 mmHg 95%
    03:00 +20°C° 0 mm 1 mps 652 mmHg 95%
    04:00 +20°C° 0 mm 1 mps 651 mmHg 95%
    05:00 +21°C° 0 mm 1 mps 652 mmHg 93%
    06:00 +22°C° 0 mm 1 mps 653 mmHg 92%
    07:00 +23°C° 0 mm 1 mps 653 mmHg 90%
    08:00 +25°C° 0 mm 1 mps 654 mmHg 78%
    09:00 +27°C° 0 mm 1 mps 655 mmHg 66%
    10:00 +29°C° 0 mm 1 mps 655 mmHg 53%
    11:00 +29°C° 0.1 mm 1 mps 655 mmHg 53%
    12:00 +30°C° 0.1 mm 1 mps 654 mmHg 52%
    13:00 +30°C° 0.1 mm 2 mps 654 mmHg 52%
    14:00 +29°C° 1 mm 1 mps 653 mmHg 61%
    15:00 +28°C° 1 mm 1 mps 652 mmHg 69%
    16:00 +26°C° 1 mm 1 mps 652 mmHg 78%
    17:00 +25°C° 0.7 mm 1 mps 652 mmHg 83%
    18:00 +23°C° 0.7 mm 1 mps 652 mmHg 88%
    19:00 +21°C° 0.7 mm 1 mps 652 mmHg 93%
    20:00 +21°C° 0.1 mm 1 mps 652 mmHg 93%
    21:00 +21°C° 0.1 mm 1 mps 652 mmHg 93%
    22:00 +21°C° 0.1 mm 1 mps 652 mmHg 93%
    23:00 +20°C° 0.1 mm 1 mps 652 mmHg 93%

    Day after tomorrow, 28 May, Thursday

    Time Temperature Precipitation Wind Pressure Humidity
    00:00 +20°C° 0.1 mm 1 mps 652 mmHg 92%
    01:00 +20°C° 0.1 mm 1 mps 652 mmHg 92%
    02:00 +18°C° 0 mm 0 mps 651 mmHg 92%
    03:00 +18°C° 0 mm 0 mps 651 mmHg 92%
    04:00 +18°C° 0 mm 0 mps 651 mmHg 92%
    05:00 +19°C° 0 mm 0 mps 652 mmHg 90%
    06:00 +20°C° 0 mm 0 mps 652 mmHg 88%
    07:00 +21°C° 0 mm 0 mps 653 mmHg 87%
    08:00 +22°C° 0.3 mm 0 mps 654 mmHg 78%
    09:00 +26°C° 0.3 mm 1 mps 654 mmHg 70%
    10:00 +28°C° 0.3 mm 1 mps 655 mmHg 62%
    11:00 +28°C° 2.3 mm 1 mps 654 mmHg 68%
    12:00 +27°C° 2.3 mm 1 mps 653 mmHg 74%
    13:00 +26°C° 2.3 mm 1 mps 653 mmHg 81%
    14:00 +26°C° 2.3 mm 1 mps 652 mmHg 83%
    15:00 +25°C° 2.3 mm 1 mps 652 mmHg 86%
    16:00 +24°C° 2.3 mm 1 mps 651 mmHg 89%
    17:00 +21°C° 0.7 mm 0 mps 651 mmHg 91%
    18:00 +20°C° 0.7 mm 0 mps 651 mmHg 93%
    19:00 +19°C° 0.7 mm 0 mps 652 mmHg 95%
    20:00 +19°C° 0.2 mm 0 mps 652 mmHg 94%
    21:00 +19°C° 0.2 mm 0 mps 652 mmHg 94%
    22:00 +19°C° 0.2 mm 0 mps 653 mmHg 94%
    23:00 +19°C° 0.2 mm 0 mps 652 mmHg 93%

    29 May, Friday

    Time Temperature Precipitation Wind Pressure Humidity
    00:00 +18°C° 0.2 mm 0 mps 652 mmHg 93%
    01:00 +18°C° 0.2 mm 0 mps 652 mmHg 93%
    02:00 +18°C° 0.6 mm 0 mps 652 mmHg 93%
    03:00 +18°C° 0.6 mm 0 mps 651 mmHg 94%
    04:00 +18°C° 0.6 mm 0 mps 651 mmHg 94%
    05:00 +18°C° 0.4 mm 0 mps 652 mmHg 93%
    06:00 +19°C° 0.4 mm 0 mps 652 mmHg 92%
    07:00 +19°C° 0.4 mm 0 mps 653 mmHg 91%
    08:00 +23°C° 0.1 mm 1 mps 653 mmHg 86%
    09:00 +24°C° 0.1 mm 1 mps 654 mmHg 80%
    10:00 +25°C° 0.1 mm 1 mps 654 mmHg 74%
    11:00 +26°C° 2 mm 1 mps 654 mmHg 77%
    12:00 +26°C° 2 mm 1 mps 653 mmHg 79%
    13:00 +26°C° 2 mm 1 mps 653 mmHg 81%
    14:00 +25°C° 2.1 mm 1 mps 653 mmHg 85%
    15:00 +24°C° 2.1 mm 1 mps 652 mmHg 89%
    16:00 +21°C° 2.1 mm 0 mps 652 mmHg 93%
    17:00 +20°C° 0.5 mm 0 mps 652 mmHg 94%
    18:00 +19°C° 0.5 mm 0 mps 652 mmHg 94%
    19:00 +19°C° 0.5 mm 0 mps 652 mmHg 95%
    20:00 +19°C° 0 mm 0 mps 652 mmHg 94%
    21:00 +18°C° 0 mm 0 mps 653 mmHg 93%
    22:00 +20°C° 0 mm 1 mps 653 mmHg 92%
    23:00 +18°C° 0 mm 0 mps 653 mmHg 92%

    30 May, Saturday

    Time Temperature Precipitation Wind Pressure Humidity
    00:00 +18°C° 0 mm 0 mps 652 mmHg 92%
    01:00 +18°C° 0 mm 0 mps 652 mmHg 91%
    02:00 +18°C° 0 mm 0 mps 652 mmHg 92%
    03:00 +18°C° 0 mm 0 mps 652 mmHg 93%
    04:00 +20°C° 0 mm 1 mps 652 mmHg 93%
    05:00 +19°C° 0 mm 0 mps 652 mmHg 91%
    06:00 +20°C° 0 mm 0 mps 653 mmHg 89%
    07:00 +20°C° 0 mm 0 mps 653 mmHg 88%
    08:00 +24°C° 0.3 mm 1 mps 654 mmHg 81%
    09:00 +25°C° 0.3 mm 1 mps 655 mmHg 75%
    10:00 +27°C° 0.3 mm 1 mps 655 mmHg 68%
    11:00 +26°C° 2 mm 1 mps 654 mmHg 74%
    12:00 +26°C° 2 mm 1 mps 654 mmHg 79%
    13:00 +25°C° 2 mm 1 mps 653 mmHg 85%
    14:00 +24°C° 2.1 mm 1 mps 653 mmHg 88%
    15:00 +23°C° 2.1 mm 1 mps 652 mmHg 91%
    16:00 +22°C° 2.1 mm 1 mps 652 mmHg 94%
    17:00 +21°C° 0.5 mm 1 mps 652 mmHg 94%
    18:00 +21°C° 0.5 mm 1 mps 652 mmHg 95%
    19:00 +21°C° 0.5 mm 1 mps 652 mmHg 95%
    20:00 +20°C° 0.2 mm 1 mps 653 mmHg 95%
    21:00 +20°C° 0.2 mm 1 mps 653 mmHg 94%
    22:00 +18°C° 0.2 mm 0 mps 654 mmHg 93%
    23:00 +20°C° 0.2 mm 1 mps 653 mmHg 94%

    31 May, Sunday

    Time Temperature Precipitation Wind Pressure Humidity
    00:00 +19°C° 0.2 mm 1 mps 653 mmHg 95%
    01:00 +19°C° 0.2 mm 1 mps 653 mmHg 96%
    02:00 +19°C° 0.2 mm 1 mps 653 mmHg 96%
    03:00 +20°C° 0.2 mm 1 mps 653 mmHg 96%
    04:00 +20°C° 0.2 mm 1 mps 653 mmHg 96%
    05:00 +20°C° 0 mm 1 mps 653 mmHg 94%
    06:00 +21°C° 0 mm 1 mps 653 mmHg 92%
    07:00 +21°C° 0 mm 1 mps 654 mmHg 89%
    08:00 +23°C° 0 mm 1 mps 654 mmHg 79%
    09:00 +25°C° 0 mm 1 mps 655 mmHg 70%
    10:00 +27°C° 0 mm 1 mps 655 mmHg 60%
    11:00 +28°C° 0.5 mm 1 mps 655 mmHg 60%
    12:00 +28°C° 0.5 mm 1 mps 655 mmHg 61%
    13:00 +28°C° 0.5 mm 1 mps 654 mmHg 62%
    14:00 +27°C° 0.8 mm 1 mps 654 mmHg 68%
    15:00 +27°C° 0.8 mm 1 mps 653 mmHg 74%
    16:00 +26°C° 0.8 mm 1 mps 653 mmHg 79%
    17:00 +24°C° 0.3 mm 1 mps 652 mmHg 85%
    18:00 +23°C° 0.3 mm 1 mps 652 mmHg 90%
    19:00 +19°C° 0.3 mm 0 mps 652 mmHg 96%
    20:00 +19°C° 0.3 mm 0 mps 652 mmHg 96%
    21:00 +19°C° 0.3 mm 0 mps 653 mmHg 97%
    22:00 +18°C° 0.3 mm 0 mps 653 mmHg 97%
    23:00 +18°C° 0.6 mm 0 mps 653 mmHg 96%
    Show more